owner,sensor,date,latitude,longitude,vertical_datum,sea_water_temperature,qcFlag 
WAVCIS,ioos:station:WAVCIS:CSI06:1,2015-11-05T23:00:00Z,28.8667,-90.4833,100.0,24.7,11111222 
WAVCIS,ioos:station:WAVCIS:CSI06:1,2015-11-06T18:00:00Z,28.8667,-90.4833,100.0,24.6,11111222 
WAVCIS,ioos:station:WAVCIS:CSI06:1,2015-11-06T20:00:00Z,28.8667,-90.4833,100.0,25.0,11111222 
WAVCIS,ioos:station:WAVCIS:CSI06:1,2015-11-06T21:00:00Z,28.8667,-90.4833,100.0,25.13,11111222 
WAVCIS,ioos:station:WAVCIS:CSI06:1,2015-11-06T22:00:00Z,28.8667,-90.4833,100.0,25.28,11111222 
WAVCIS,ioos:station:WAVCIS:CSI06:1,2015-11-06T23:00:00Z,28.8667,-90.4833,100.0,25.19,11111222 
WAVCIS,ioos:station:WAVCIS:CSI06:1,2015-11-07T00:00:00Z,28.8667,-90.4833,100.0,25.07,11111222 
WAVCIS,ioos:station:WAVCIS:CSI06:1,2015-11-07T01:00:00Z,28.8667,-90.4833,100.0,25.12,11111222 
WAVCIS,ioos:station:WAVCIS:CSI06:1,2015-11-07T02:00:00Z,28.8667,-90.4833,100.0,25.14,11111222 
WAVCIS,ioos:station:WAVCIS:CSI06:1,2015-11-07T03:00:00Z,28.8667,-90.4833,100.0,25.37,11111222 
WAVCIS,ioos:station:WAVCIS:CSI06:1,2015-11-07T04:00:00Z,28.8667,-90.4833,100.0,25.36,11111222 
WAVCIS,ioos:station:WAVCIS:CSI06:1,2015-11-07T05:00:00Z,28.8667,-90.4833,100.0,25.34,11111222 
WAVCIS,ioos:station:WAVCIS:CSI06:1,2015-11-07T06:00:00Z,28.8667,-90.4833,100.0,25.36,11111222 
WAVCIS,ioos:station:WAVCIS:CSI06:1,2015-11-07T07:00:00Z,28.8667,-90.4833,100.0,25.21,11111222 
WAVCIS,ioos:station:WAVCIS:CSI06:1,2015-11-07T08:00:00Z,28.8667,-90.4833,100.0,25.23,11111222 
WAVCIS,ioos:station:WAVCIS:CSI06:1,2015-11-07T09:00:00Z,28.8667,-90.4833,100.0,25.02,11111222 
WAVCIS,ioos:station:WAVCIS:CSI06:1,2015-11-07T10:00:00Z,28.8667,-90.4833,100.0,24.92,11111222 
WAVCIS,ioos:station:WAVCIS:CSI06:1,2015-11-07T11:00:00Z,28.8667,-90.4833,100.0,24.73,11111222 
WAVCIS,ioos:station:WAVCIS:CSI06:1,2015-11-07T12:00:00Z,28.8667,-90.4833,100.0,24.62,11111222 
WAVCIS,ioos:station:WAVCIS:CSI06:1,2015-11-07T13:00:00Z,28.8667,-90.4833,100.0,24.75,11111222 
WAVCIS,ioos:station:WAVCIS:CSI06:1,2015-11-07T14:00:00Z,28.8667,-90.4833,100.0,24.61,11111222 
WAVCIS,ioos:station:WAVCIS:CSI06:1,2015-11-07T15:00:00Z,28.8667,-90.4833,100.0,24.59,11111222 
WAVCIS,ioos:station:WAVCIS:CSI06:1,2015-11-07T16:00:00Z,28.8667,-90.4833,100.0,24.72,11111222 
WAVCIS,ioos:station:WAVCIS:CSI06:1,2015-11-07T17:00:00Z,28.8667,-90.4833,100.0,24.7,11111222 
WAVCIS,ioos:station:WAVCIS:CSI06:1,2015-11-07T18:00:00Z,28.8667,-90.4833,100.0,24.89,11111222 
WAVCIS,ioos:station:WAVCIS:CSI06:1,2015-11-07T19:00:00Z,28.8667,-90.4833,100.0,24.99,11111222 
WAVCIS,ioos:station:WAVCIS:CSI06:1,2015-11-07T20:00:00Z,28.8667,-90.4833,100.0,25.09,11111222 
WAVCIS,ioos:station:WAVCIS:CSI06:1,2015-11-07T21:00:00Z,28.8667,-90.4833,100.0,25.13,11111222 
WAVCIS,ioos:station:WAVCIS:CSI06:1,2015-11-07T22:00:00Z,28.8667,-90.4833,100.0,25.17,11111222 
WAVCIS,ioos:station:WAVCIS:CSI06:1,2015-11-07T23:00:00Z,28.8667,-90.4833,100.0,25.16,11111222 
WAVCIS,ioos:station:WAVCIS:CSI06:1,2015-11-08T00:00:00Z,28.8667,-90.4833,100.0,25.19,11111222 
WAVCIS,ioos:station:WAVCIS:CSI06:1,2015-11-08T01:00:00Z,28.8667,-90.4833,100.0,25.21,11111222 
WAVCIS,ioos:station:WAVCIS:CSI06:1,2015-11-08T02:00:00Z,28.8667,-90.4833,100.0,25.2,11111222 
WAVCIS,ioos:station:WAVCIS:CSI06:1,2015-11-08T03:00:00Z,28.8667,-90.4833,100.0,25.2,11111222 
WAVCIS,ioos:station:WAVCIS:CSI06:1,2015-11-08T04:00:00Z,28.8667,-90.4833,100.0,25.16,11111222 
WAVCIS,ioos:station:WAVCIS:CSI06:1,2015-11-08T05:00:00Z,28.8667,-90.4833,100.0,25.13,11111222 
WAVCIS,ioos:station:WAVCIS:CSI06:1,2015-11-08T06:00:00Z,28.8667,-90.4833,100.0,25.07,11111222 
WAVCIS,ioos:station:WAVCIS:CSI06:1,2015-11-08T07:00:00Z,28.8667,-90.4833,100.0,25.02,11111222 
WAVCIS,ioos:station:WAVCIS:CSI06:1,2015-11-08T08:00:00Z,28.8667,-90.4833,100.0,24.96,11111222 
WAVCIS,ioos:station:WAVCIS:CSI06:1,2015-11-08T09:00:00Z,28.8667,-90.4833,100.0,24.95,11111222 
WAVCIS,ioos:station:WAVCIS:CSI06:1,2015-11-08T10:00:00Z,28.8667,-90.4833,100.0,24.91,11111222 
WAVCIS,ioos:station:WAVCIS:CSI06:1,2015-11-08T11:00:00Z,28.8667,-90.4833,100.0,24.9,11111222 
WAVCIS,ioos:station:WAVCIS:CSI06:1,2015-11-08T12:00:00Z,28.8667,-90.4833,100.0,24.84,11111222 
WAVCIS,ioos:station:WAVCIS:CSI06:1,2015-11-08T13:00:00Z,28.8667,-90.4833,100.0,24.82,11111222 
WAVCIS,ioos:station:WAVCIS:CSI06:1,2015-11-08T14:00:00Z,28.8667,-90.4833,100.0,24.77,11111222 
WAVCIS,ioos:station:WAVCIS:CSI06:1,2015-11-08T15:00:00Z,28.8667,-90.4833,100.0,24.75,11111222 
WAVCIS,ioos:station:WAVCIS:CSI06:1,2015-11-08T16:00:00Z,28.8667,-90.4833,100.0,24.74,11111222 
WAVCIS,ioos:station:WAVCIS:CSI06:1,2015-11-08T17:00:00Z,28.8667,-90.4833,100.0,24.71,11111222 
WAVCIS,ioos:station:WAVCIS:CSI06:1,2015-11-08T18:00:00Z,28.8667,-90.4833,100.0,24.71,11111222 
WAVCIS,ioos:station:WAVCIS:CSI06:1,2015-11-08T19:00:00Z,28.8667,-90.4833,100.0,24.71,11111222 
WAVCIS,ioos:station:WAVCIS:CSI06:1,2015-11-08T20:00:00Z,28.8667,-90.4833,100.0,24.65,11111222 
WAVCIS,ioos:station:WAVCIS:CSI06:1,2015-11-08T21:00:00Z,28.8667,-90.4833,100.0,24.62,11111222 
WAVCIS,ioos:station:WAVCIS:CSI06:1,2015-11-08T22:00:00Z,28.8667,-90.4833,100.0,24.62,11111222 
WAVCIS,ioos:station:WAVCIS:CSI06:1,2015-11-08T23:00:00Z,28.8667,-90.4833,100.0,24.57,11111222 
WAVCIS,ioos:station:WAVCIS:CSI06:1,2015-11-09T00:00:00Z,28.8667,-90.4833,100.0,24.57,11111222 
WAVCIS,ioos:station:WAVCIS:CSI06:1,2015-11-09T01:00:00Z,28.8667,-90.4833,100.0,24.61,11111222 
WAVCIS,ioos:station:WAVCIS:CSI06:1,2015-11-09T02:00:00Z,28.8667,-90.4833,100.0,24.59,11111222 
WAVCIS,ioos:station:WAVCIS:CSI06:1,2015-11-09T03:00:00Z,28.8667,-90.4833,100.0,24.55,11111222 
WAVCIS,ioos:station:WAVCIS:CSI06:1,2015-11-09T04:00:00Z,28.8667,-90.4833,100.0,24.55,11111222 
WAVCIS,ioos:station:WAVCIS:CSI06:1,2015-11-09T05:00:00Z,28.8667,-90.4833,100.0,24.51,11111222 
WAVCIS,ioos:station:WAVCIS:CSI06:1,2015-11-09T06:00:00Z,28.8667,-90.4833,100.0,24.47,11111222 
WAVCIS,ioos:station:WAVCIS:CSI06:1,2015-11-09T07:00:00Z,28.8667,-90.4833,100.0,24.53,11111222 
WAVCIS,ioos:station:WAVCIS:CSI06:1,2015-11-09T08:00:00Z,28.8667,-90.4833,100.0,24.56,11111222 
WAVCIS,ioos:station:WAVCIS:CSI06:1,2015-11-09T09:00:00Z,28.8667,-90.4833,100.0,24.53,11111222 
WAVCIS,ioos:station:WAVCIS:CSI06:1,2015-11-09T10:00:00Z,28.8667,-90.4833,100.0,24.27,11111222 
WAVCIS,ioos:station:WAVCIS:CSI06:1,2015-11-09T11:00:00Z,28.8667,-90.4833,100.0,24.27,11111222 
WAVCIS,ioos:station:WAVCIS:CSI06:1,2015-11-09T12:00:00Z,28.8667,-90.4833,100.0,23.99,11111222 
WAVCIS,ioos:station:WAVCIS:CSI06:1,2015-11-09T13:00:00Z,28.8667,-90.4833,100.0,24.02,11111222 
WAVCIS,ioos:station:WAVCIS:CSI06:1,2015-11-09T14:00:00Z,28.8667,-90.4833,100.0,24.05,11111222 
WAVCIS,ioos:station:WAVCIS:CSI06:1,2015-11-09T15:00:00Z,28.8667,-90.4833,100.0,24.07,11111222 
WAVCIS,ioos:station:WAVCIS:CSI06:1,2015-11-09T16:00:00Z,28.8667,-90.4833,100.0,24.17,11111222 
WAVCIS,ioos:station:WAVCIS:CSI06:1,2015-11-09T18:00:00Z,28.8667,-90.4833,100.0,24.21,11111222 
WAVCIS,ioos:station:WAVCIS:CSI06:1,2015-11-09T19:00:00Z,28.8667,-90.4833,100.0,24.02,11111222 
WAVCIS,ioos:station:WAVCIS:CSI06:1,2015-11-09T20:00:00Z,28.8667,-90.4833,100.0,23.97,11111222 
WAVCIS,ioos:station:WAVCIS:CSI06:1,2015-11-09T21:00:00Z,28.8667,-90.4833,100.0,24.08,11111222 
WAVCIS,ioos:station:WAVCIS:CSI06:1,2015-11-09T22:00:00Z,28.8667,-90.4833,100.0,24.03,11111222 
WAVCIS,ioos:station:WAVCIS:CSI06:1,2015-11-09T23:00:00Z,28.8667,-90.4833,100.0,24.03,11111222 
WAVCIS,ioos:station:WAVCIS:CSI06:1,2015-11-10T00:00:00Z,28.8667,-90.4833,100.0,24.02,11111222 
WAVCIS,ioos:station:WAVCIS:CSI06:1,2015-11-10T01:00:00Z,28.8667,-90.4833,100.0,24.02,11111222 
WAVCIS,ioos:station:WAVCIS:CSI06:1,2015-11-10T02:00:00Z,28.8667,-90.4833,100.0,24.02,11111222 
WAVCIS,ioos:station:WAVCIS:CSI06:1,2015-11-10T03:00:00Z,28.8667,-90.4833,100.0,23.96,11111222 
WAVCIS,ioos:station:WAVCIS:CSI06:1,2015-11-10T04:00:00Z,28.8667,-90.4833,100.0,23.82,11111222 
WAVCIS,ioos:station:WAVCIS:CSI06:1,2015-11-10T05:00:00Z,28.8667,-90.4833,100.0,23.96,11111222 
WAVCIS,ioos:station:WAVCIS:CSI06:1,2015-11-10T06:00:00Z,28.8667,-90.4833,100.0,24.06,11111222 
WAVCIS,ioos:station:WAVCIS:CSI06:1,2015-11-10T07:00:00Z,28.8667,-90.4833,100.0,24.07,11111222 
WAVCIS,ioos:station:WAVCIS:CSI06:1,2015-11-10T08:00:00Z,28.8667,-90.4833,100.0,24.1,11111222 
WAVCIS,ioos:station:WAVCIS:CSI06:1,2015-11-10T09:00:00Z,28.8667,-90.4833,100.0,24.09,11111222 
WAVCIS,ioos:station:WAVCIS:CSI06:1,2015-11-10T10:00:00Z,28.8667,-90.4833,100.0,24.13,11111222 
WAVCIS,ioos:station:WAVCIS:CSI06:1,2015-11-10T11:00:00Z,28.8667,-90.4833,100.0,24.16,11111222 
WAVCIS,ioos:station:WAVCIS:CSI06:1,2015-11-10T12:00:00Z,28.8667,-90.4833,100.0,24.19,11111222 
WAVCIS,ioos:station:WAVCIS:CSI06:1,2015-11-10T13:00:00Z,28.8667,-90.4833,100.0,24.14,11111222 
WAVCIS,ioos:station:WAVCIS:CSI06:1,2015-11-10T14:00:00Z,28.8667,-90.4833,100.0,24.14,11111222 
WAVCIS,ioos:station:WAVCIS:CSI06:1,2015-11-10T15:00:00Z,28.8667,-90.4833,100.0,24.14,11111222 
WAVCIS,ioos:station:WAVCIS:CSI06:1,2015-11-10T16:00:00Z,28.8667,-90.4833,100.0,24.09,11111222 
WAVCIS,ioos:station:WAVCIS:CSI06:1,2015-11-10T17:00:00Z,28.8667,-90.4833,100.0,23.96,11111222 
WAVCIS,ioos:station:WAVCIS:CSI06:1,2015-11-10T18:00:00Z,28.8667,-90.4833,100.0,24.0,11111222 
WAVCIS,ioos:station:WAVCIS:CSI06:1,2015-11-10T19:00:00Z,28.8667,-90.4833,100.0,24.0,11111222 
WAVCIS,ioos:station:WAVCIS:CSI06:1,2015-11-10T20:00:00Z,28.8667,-90.4833,100.0,23.91,11111222 
WAVCIS,ioos:station:WAVCIS:CSI06:1,2015-11-10T21:00:00Z,28.8667,-90.4833,100.0,23.96,11111222 
WAVCIS,ioos:station:WAVCIS:CSI06:1,2015-11-10T22:00:00Z,28.8667,-90.4833,100.0,24.01,11111222 
WAVCIS,ioos:station:WAVCIS:CSI06:1,2015-11-10T23:00:00Z,28.8667,-90.4833,100.0,24.04,11111222 
WAVCIS,ioos:station:WAVCIS:CSI06:1,2015-11-11T00:00:00Z,28.8667,-90.4833,100.0,23.98,11111222 
WAVCIS,ioos:station:WAVCIS:CSI06:1,2015-11-11T01:00:00Z,28.8667,-90.4833,100.0,24.02,11111222 
WAVCIS,ioos:station:WAVCIS:CSI06:1,2015-11-11T02:00:00Z,28.8667,-90.4833,100.0,24.03,11111222 
WAVCIS,ioos:station:WAVCIS:CSI06:1,2015-11-11T03:00:00Z,28.8667,-90.4833,100.0,24.04,11111222 
WAVCIS,ioos:station:WAVCIS:CSI06:1,2015-11-11T04:00:00Z,28.8667,-90.4833,100.0,24.08,11111222 
WAVCIS,ioos:station:WAVCIS:CSI06:1,2015-11-11T05:00:00Z,28.8667,-90.4833,100.0,24.03,11111222 
WAVCIS,ioos:station:WAVCIS:CSI06:1,2015-11-11T06:00:00Z,28.8667,-90.4833,100.0,24.02,11111222 
WAVCIS,ioos:station:WAVCIS:CSI06:1,2015-11-11T07:00:00Z,28.8667,-90.4833,100.0,24.01,11111222 
WAVCIS,ioos:station:WAVCIS:CSI06:1,2015-11-11T08:00:00Z,28.8667,-90.4833,100.0,23.99,11111222 
WAVCIS,ioos:station:WAVCIS:CSI06:1,2015-11-11T09:00:00Z,28.8667,-90.4833,100.0,23.99,11111222 
WAVCIS,ioos:station:WAVCIS:CSI06:1,2015-11-11T10:00:00Z,28.8667,-90.4833,100.0,23.96,11111222 
WAVCIS,ioos:station:WAVCIS:CSI06:1,2015-11-11T11:00:00Z,28.8667,-90.4833,100.0,23.81,11111222 
WAVCIS,ioos:station:WAVCIS:CSI06:1,2015-11-11T12:00:00Z,28.8667,-90.4833,100.0,23.72,11111222 
WAVCIS,ioos:station:WAVCIS:CSI06:1,2015-11-11T13:00:00Z,28.8667,-90.4833,100.0,23.7,11111222 
WAVCIS,ioos:station:WAVCIS:CSI06:1,2015-11-11T14:00:00Z,28.8667,-90.4833,100.0,23.83,11111222 
WAVCIS,ioos:station:WAVCIS:CSI06:1,2015-11-11T15:00:00Z,28.8667,-90.4833,100.0,23.73,11111222 
WAVCIS,ioos:station:WAVCIS:CSI06:1,2015-11-11T16:00:00Z,28.8667,-90.4833,100.0,23.66,11111222 
WAVCIS,ioos:station:WAVCIS:CSI06:1,2015-11-11T17:00:00Z,28.8667,-90.4833,100.0,23.71,11111222 
WAVCIS,ioos:station:WAVCIS:CSI06:1,2015-11-11T18:00:00Z,28.8667,-90.4833,100.0,23.71,11111222 
WAVCIS,ioos:station:WAVCIS:CSI06:1,2015-11-11T19:00:00Z,28.8667,-90.4833,100.0,23.88,11111222 
WAVCIS,ioos:station:WAVCIS:CSI06:1,2015-11-11T20:00:00Z,28.8667,-90.4833,100.0,23.89,11111222 
WAVCIS,ioos:station:WAVCIS:CSI06:1,2015-11-11T21:00:00Z,28.8667,-90.4833,100.0,23.97,11111222 
WAVCIS,ioos:station:WAVCIS:CSI06:1,2015-11-11T22:00:00Z,28.8667,-90.4833,100.0,24.0,11111222 
WAVCIS,ioos:station:WAVCIS:CSI06:1,2015-11-11T23:00:00Z,28.8667,-90.4833,100.0,24.02,11111222 
WAVCIS,ioos:station:WAVCIS:CSI06:1,2015-11-12T00:00:00Z,28.8667,-90.4833,100.0,24.02,11111222 
WAVCIS,ioos:station:WAVCIS:CSI06:1,2015-11-12T01:00:00Z,28.8667,-90.4833,100.0,24.03,11111222 
WAVCIS,ioos:station:WAVCIS:CSI06:1,2015-11-12T02:00:00Z,28.8667,-90.4833,100.0,24.03,11111222 
WAVCIS,ioos:station:WAVCIS:CSI06:1,2015-11-12T03:00:00Z,28.8667,-90.4833,100.0,24.02,11111222 
WAVCIS,ioos:station:WAVCIS:CSI06:1,2015-11-12T04:00:00Z,28.8667,-90.4833,100.0,24.03,11111222 
WAVCIS,ioos:station:WAVCIS:CSI06:1,2015-11-12T05:00:00Z,28.8667,-90.4833,100.0,24.02,11111222 
WAVCIS,ioos:station:WAVCIS:CSI06:1,2015-11-12T06:00:00Z,28.8667,-90.4833,100.0,24.0,11111222 
WAVCIS,ioos:station:WAVCIS:CSI06:1,2015-11-12T07:00:00Z,28.8667,-90.4833,100.0,23.98,11111222 
WAVCIS,ioos:station:WAVCIS:CSI06:1,2015-11-12T08:00:00Z,28.8667,-90.4833,100.0,23.98,11111222 
WAVCIS,ioos:station:WAVCIS:CSI06:1,2015-11-12T09:00:00Z,28.8667,-90.4833,100.0,23.95,11111222 
WAVCIS,ioos:station:WAVCIS:CSI06:1,2015-11-12T10:00:00Z,28.8667,-90.4833,100.0,23.92,11111222 
WAVCIS,ioos:station:WAVCIS:CSI06:1,2015-11-12T11:00:00Z,28.8667,-90.4833,100.0,23.86,11111222 
WAVCIS,ioos:station:WAVCIS:CSI06:1,2015-11-12T12:00:00Z,28.8667,-90.4833,100.0,23.88,11111222 
WAVCIS,ioos:station:WAVCIS:CSI06:1,2015-11-12T13:00:00Z,28.8667,-90.4833,100.0,23.8,11111222 
WAVCIS,ioos:station:WAVCIS:CSI06:1,2015-11-12T14:00:00Z,28.8667,-90.4833,100.0,23.88,11111222 
WAVCIS,ioos:station:WAVCIS:CSI06:1,2015-11-12T15:00:00Z,28.8667,-90.4833,100.0,23.94,11111222 
WAVCIS,ioos:station:WAVCIS:CSI06:1,2015-11-12T16:00:00Z,28.8667,-90.4833,100.0,23.89,11111222 
WAVCIS,ioos:station:WAVCIS:CSI06:1,2015-11-12T17:00:00Z,28.8667,-90.4833,100.0,23.97,11111222 
WAVCIS,ioos:station:WAVCIS:CSI06:1,2015-11-12T18:00:00Z,28.8667,-90.4833,100.0,24.1,11111222 
WAVCIS,ioos:station:WAVCIS:CSI06:1,2015-11-12T19:00:00Z,28.8667,-90.4833,100.0,24.12,11111222 
WAVCIS,ioos:station:WAVCIS:CSI06:1,2015-11-12T20:00:00Z,28.8667,-90.4833,100.0,24.07,11111222 
WAVCIS,ioos:station:WAVCIS:CSI06:1,2015-11-12T21:00:00Z,28.8667,-90.4833,100.0,24.03,11111222 
WAVCIS,ioos:station:WAVCIS:CSI06:1,2015-11-12T22:00:00Z,28.8667,-90.4833,100.0,24.04,11111222 
WAVCIS,ioos:station:WAVCIS:CSI06:1,2015-11-12T23:00:00Z,28.8667,-90.4833,100.0,24.02,11111222 
WAVCIS,ioos:station:WAVCIS:CSI06:1,2015-11-13T00:00:00Z,28.8667,-90.4833,100.0,24.01,11111222 
WAVCIS,ioos:station:WAVCIS:CSI06:1,2015-11-13T01:00:00Z,28.8667,-90.4833,100.0,24.01,11111222 
WAVCIS,ioos:station:WAVCIS:CSI06:1,2015-11-13T02:00:00Z,28.8667,-90.4833,100.0,24.03,11111222 
WAVCIS,ioos:station:WAVCIS:CSI06:1,2015-11-13T03:00:00Z,28.8667,-90.4833,100.0,24.04,11111222 
WAVCIS,ioos:station:WAVCIS:CSI06:1,2015-11-13T04:00:00Z,28.8667,-90.4833,100.0,24.03,11111222 
WAVCIS,ioos:station:WAVCIS:CSI06:1,2015-11-13T05:00:00Z,28.8667,-90.4833,100.0,24.05,11111222 
WAVCIS,ioos:station:WAVCIS:CSI06:1,2015-11-13T06:00:00Z,28.8667,-90.4833,100.0,24.05,11111222 
WAVCIS,ioos:station:WAVCIS:CSI06:1,2015-11-13T07:00:00Z,28.8667,-90.4833,100.0,24.03,11111222 
WAVCIS,ioos:station:WAVCIS:CSI06:1,2015-11-13T08:00:00Z,28.8667,-90.4833,100.0,24.01,11111222 
WAVCIS,ioos:station:WAVCIS:CSI06:1,2015-11-13T09:00:00Z,28.8667,-90.4833,100.0,24.02,11111222 
WAVCIS,ioos:station:WAVCIS:CSI06:1,2015-11-13T10:00:00Z,28.8667,-90.4833,100.0,23.97,11111222 
WAVCIS,ioos:station:WAVCIS:CSI06:1,2015-11-13T11:00:00Z,28.8667,-90.4833,100.0,23.92,11111222 
WAVCIS,ioos:station:WAVCIS:CSI06:1,2015-11-13T12:00:00Z,28.8667,-90.4833,100.0,23.54,11111222 
WAVCIS,ioos:station:WAVCIS:CSI06:1,2015-11-13T13:00:00Z,28.8667,-90.4833,100.0,23.59,11111222 
WAVCIS,ioos:station:WAVCIS:CSI06:1,2015-11-13T14:00:00Z,28.8667,-90.4833,100.0,23.58,11111222 
WAVCIS,ioos:station:WAVCIS:CSI06:1,2015-11-13T15:00:00Z,28.8667,-90.4833,100.0,23.52,11111222 
WAVCIS,ioos:station:WAVCIS:CSI06:1,2015-11-13T16:00:00Z,28.8667,-90.4833,100.0,23.49,11111222 
WAVCIS,ioos:station:WAVCIS:CSI06:1,2015-11-13T17:00:00Z,28.8667,-90.4833,100.0,23.34,11111222 
WAVCIS,ioos:station:WAVCIS:CSI06:1,2015-11-13T18:00:00Z,28.8667,-90.4833,100.0,23.4,11111222 
WAVCIS,ioos:station:WAVCIS:CSI06:1,2015-11-13T19:00:00Z,28.8667,-90.4833,100.0,23.49,11111222 
WAVCIS,ioos:station:WAVCIS:CSI06:1,2015-11-13T20:00:00Z,28.8667,-90.4833,100.0,23.51,11111222 
WAVCIS,ioos:station:WAVCIS:CSI06:1,2015-11-13T21:00:00Z,28.8667,-90.4833,100.0,23.3,11111222 
WAVCIS,ioos:station:WAVCIS:CSI06:1,2015-11-13T22:00:00Z,28.8667,-90.4833,100.0,23.31,11111222 
WAVCIS,ioos:station:WAVCIS:CSI06:1,2015-11-13T23:00:00Z,28.8667,-90.4833,100.0,23.36,11111222 
WAVCIS,ioos:station:WAVCIS:CSI06:1,2015-11-14T00:00:00Z,28.8667,-90.4833,100.0,23.39,11111222 
WAVCIS,ioos:station:WAVCIS:CSI06:1,2015-11-14T01:00:00Z,28.8667,-90.4833,100.0,23.4,11111222 
WAVCIS,ioos:station:WAVCIS:CSI06:1,2015-11-14T02:00:00Z,28.8667,-90.4833,100.0,23.41,11111222 
WAVCIS,ioos:station:WAVCIS:CSI06:1,2015-11-14T03:00:00Z,28.8667,-90.4833,100.0,23.39,11111222 
WAVCIS,ioos:station:WAVCIS:CSI06:1,2015-11-14T04:00:00Z,28.8667,-90.4833,100.0,23.41,11111222 
WAVCIS,ioos:station:WAVCIS:CSI06:1,2015-11-14T05:00:00Z,28.8667,-90.4833,100.0,23.38,11111222 
WAVCIS,ioos:station:WAVCIS:CSI06:1,2015-11-14T06:00:00Z,28.8667,-90.4833,100.0,23.35,11111222 
WAVCIS,ioos:station:WAVCIS:CSI06:1,2015-11-14T07:00:00Z,28.8667,-90.4833,100.0,23.34,11111222 
WAVCIS,ioos:station:WAVCIS:CSI06:1,2015-11-14T08:00:00Z,28.8667,-90.4833,100.0,23.23,11111222 
WAVCIS,ioos:station:WAVCIS:CSI06:1,2015-11-14T09:00:00Z,28.8667,-90.4833,100.0,23.28,11111222 
WAVCIS,ioos:station:WAVCIS:CSI06:1,2015-11-14T10:00:00Z,28.8667,-90.4833,100.0,23.17,11111222 
WAVCIS,ioos:station:WAVCIS:CSI06:1,2015-11-14T11:00:00Z,28.8667,-90.4833,100.0,23.09,11111222 
WAVCIS,ioos:station:WAVCIS:CSI06:1,2015-11-14T12:00:00Z,28.8667,-90.4833,100.0,23.08,11111222 
WAVCIS,ioos:station:WAVCIS:CSI06:1,2015-11-14T13:00:00Z,28.8667,-90.4833,100.0,23.05,11111222 
WAVCIS,ioos:station:WAVCIS:CSI06:1,2015-11-14T14:00:00Z,28.8667,-90.4833,100.0,22.81,11111222 
WAVCIS,ioos:station:WAVCIS:CSI06:1,2015-11-14T15:00:00Z,28.8667,-90.4833,100.0,22.78,11111222 
WAVCIS,ioos:station:WAVCIS:CSI06:1,2015-11-14T16:00:00Z,28.8667,-90.4833,100.0,22.8,11111222 
WAVCIS,ioos:station:WAVCIS:CSI06:1,2015-11-14T17:00:00Z,28.8667,-90.4833,100.0,22.76,11111222 
WAVCIS,ioos:station:WAVCIS:CSI06:1,2015-11-14T18:00:00Z,28.8667,-90.4833,100.0,22.76,11111222 
WAVCIS,ioos:station:WAVCIS:CSI06:1,2015-11-14T19:00:00Z,28.8667,-90.4833,100.0,22.77,11111222 
WAVCIS,ioos:station:WAVCIS:CSI06:1,2015-11-14T20:00:00Z,28.8667,-90.4833,100.0,22.76,11111222 
WAVCIS,ioos:station:WAVCIS:CSI06:1,2015-11-14T21:00:00Z,28.8667,-90.4833,100.0,22.71,11111222 
WAVCIS,ioos:station:WAVCIS:CSI06:1,2015-11-14T22:00:00Z,28.8667,-90.4833,100.0,22.73,11111222 
WAVCIS,ioos:station:WAVCIS:CSI06:1,2015-11-14T23:00:00Z,28.8667,-90.4833,100.0,22.7,11111222 
WAVCIS,ioos:station:WAVCIS:CSI06:1,2015-11-15T00:00:00Z,28.8667,-90.4833,100.0,22.68,11111222 
WAVCIS,ioos:station:WAVCIS:CSI06:1,2015-11-15T01:00:00Z,28.8667,-90.4833,100.0,22.65,11111222 
WAVCIS,ioos:station:WAVCIS:CSI06:1,2015-11-15T02:00:00Z,28.8667,-90.4833,100.0,22.64,11111222 
WAVCIS,ioos:station:WAVCIS:CSI06:1,2015-11-15T03:00:00Z,28.8667,-90.4833,100.0,22.65,11111222 
WAVCIS,ioos:station:WAVCIS:CSI06:1,2015-11-15T04:00:00Z,28.8667,-90.4833,100.0,22.63,11111222 
WAVCIS,ioos:station:WAVCIS:CSI06:1,2015-11-15T05:00:00Z,28.8667,-90.4833,100.0,22.62,11111222 
WAVCIS,ioos:station:WAVCIS:CSI06:1,2015-11-15T06:00:00Z,28.8667,-90.4833,100.0,22.6,11111222 
WAVCIS,ioos:station:WAVCIS:CSI06:1,2015-11-15T07:00:00Z,28.8667,-90.4833,100.0,22.59,11111222 
WAVCIS,ioos:station:WAVCIS:CSI06:1,2015-11-15T08:00:00Z,28.8667,-90.4833,100.0,22.6,11111222 
WAVCIS,ioos:station:WAVCIS:CSI06:1,2015-11-15T09:00:00Z,28.8667,-90.4833,100.0,22.58,11111222 
WAVCIS,ioos:station:WAVCIS:CSI06:1,2015-11-15T10:00:00Z,28.8667,-90.4833,100.0,22.55,11111222 
WAVCIS,ioos:station:WAVCIS:CSI06:1,2015-11-15T11:00:00Z,28.8667,-90.4833,100.0,22.54,11111222 
WAVCIS,ioos:station:WAVCIS:CSI06:1,2015-11-15T12:00:00Z,28.8667,-90.4833,100.0,22.5,11111222 
WAVCIS,ioos:station:WAVCIS:CSI06:1,2015-11-15T13:00:00Z,28.8667,-90.4833,100.0,22.47,11111222 
WAVCIS,ioos:station:WAVCIS:CSI06:1,2015-11-15T14:00:00Z,28.8667,-90.4833,100.0,22.52,11111222 
WAVCIS,ioos:station:WAVCIS:CSI06:1,2015-11-15T15:00:00Z,28.8667,-90.4833,100.0,22.55,11111222 
WAVCIS,ioos:station:WAVCIS:CSI06:1,2015-11-15T16:00:00Z,28.8667,-90.4833,100.0,22.55,11111222 
WAVCIS,ioos:station:WAVCIS:CSI06:1,2015-11-15T17:00:00Z,28.8667,-90.4833,100.0,22.54,11111222 
WAVCIS,ioos:station:WAVCIS:CSI06:1,2015-11-15T18:00:00Z,28.8667,-90.4833,100.0,22.55,11111222 
WAVCIS,ioos:station:WAVCIS:CSI06:1,2015-11-15T19:00:00Z,28.8667,-90.4833,100.0,22.63,11111222 
WAVCIS,ioos:station:WAVCIS:CSI06:1,2015-11-15T20:00:00Z,28.8667,-90.4833,100.0,22.66,11111222 
WAVCIS,ioos:station:WAVCIS:CSI06:1,2015-11-15T21:00:00Z,28.8667,-90.4833,100.0,22.64,11111222 
WAVCIS,ioos:station:WAVCIS:CSI06:1,2015-11-15T22:00:00Z,28.8667,-90.4833,100.0,22.67,11111222 
WAVCIS,ioos:station:WAVCIS:CSI06:1,2015-11-15T23:00:00Z,28.8667,-90.4833,100.0,22.71,11111222 
WAVCIS,ioos:station:WAVCIS:CSI06:1,2015-11-16T00:00:00Z,28.8667,-90.4833,100.0,22.82,11111222 
WAVCIS,ioos:station:WAVCIS:CSI06:1,2015-11-16T01:00:00Z,28.8667,-90.4833,100.0,22.8,11111222 
WAVCIS,ioos:station:WAVCIS:CSI06:1,2015-11-16T02:00:00Z,28.8667,-90.4833,100.0,22.74,11111222 
WAVCIS,ioos:station:WAVCIS:CSI06:1,2015-11-16T03:00:00Z,28.8667,-90.4833,100.0,22.8,11111222 
WAVCIS,ioos:station:WAVCIS:CSI06:1,2015-11-16T04:00:00Z,28.8667,-90.4833,100.0,22.81,11111222 
WAVCIS,ioos:station:WAVCIS:CSI06:1,2015-11-16T05:00:00Z,28.8667,-90.4833,100.0,22.83,11111222 
WAVCIS,ioos:station:WAVCIS:CSI06:1,2015-11-16T06:00:00Z,28.8667,-90.4833,100.0,22.81,11111222 
WAVCIS,ioos:station:WAVCIS:CSI06:1,2015-11-16T07:00:00Z,28.8667,-90.4833,100.0,22.78,11111222 
WAVCIS,ioos:station:WAVCIS:CSI06:1,2015-11-16T08:00:00Z,28.8667,-90.4833,100.0,22.77,11111222 
WAVCIS,ioos:station:WAVCIS:CSI06:1,2015-11-16T09:00:00Z,28.8667,-90.4833,100.0,22.73,11111222 
WAVCIS,ioos:station:WAVCIS:CSI06:1,2015-11-16T10:00:00Z,28.8667,-90.4833,100.0,22.73,11111222 
WAVCIS,ioos:station:WAVCIS:CSI06:1,2015-11-16T11:00:00Z,28.8667,-90.4833,100.0,22.7,11111222 
WAVCIS,ioos:station:WAVCIS:CSI06:1,2015-11-16T12:00:00Z,28.8667,-90.4833,100.0,22.66,11111222 
WAVCIS,ioos:station:WAVCIS:CSI06:1,2015-11-16T13:00:00Z,28.8667,-90.4833,100.0,22.66,11111222 
WAVCIS,ioos:station:WAVCIS:CSI06:1,2015-11-16T14:00:00Z,28.8667,-90.4833,100.0,22.69,11111222 
WAVCIS,ioos:station:WAVCIS:CSI06:1,2015-11-16T15:00:00Z,28.8667,-90.4833,100.0,22.7,11111222 
WAVCIS,ioos:station:WAVCIS:CSI06:1,2015-11-16T16:00:00Z,28.8667,-90.4833,100.0,22.71,11111222 
WAVCIS,ioos:station:WAVCIS:CSI06:1,2015-11-16T17:00:00Z,28.8667,-90.4833,100.0,22.72,11111222 
WAVCIS,ioos:station:WAVCIS:CSI06:1,2015-11-16T18:00:00Z,28.8667,-90.4833,100.0,22.76,11111222 
WAVCIS,ioos:station:WAVCIS:CSI06:1,2015-11-16T19:00:00Z,28.8667,-90.4833,100.0,22.69,11111222 
WAVCIS,ioos:station:WAVCIS:CSI06:1,2015-11-16T20:00:00Z,28.8667,-90.4833,100.0,22.55,11111222 
WAVCIS,ioos:station:WAVCIS:CSI06:1,2015-11-16T21:00:00Z,28.8667,-90.4833,100.0,22.72,11111222 
WAVCIS,ioos:station:WAVCIS:CSI06:1,2015-11-16T22:00:00Z,28.8667,-90.4833,100.0,23.16,11111222 
WAVCIS,ioos:station:WAVCIS:CSI06:1,2015-11-16T23:00:00Z,28.8667,-90.4833,100.0,23.14,11111222 
WAVCIS,ioos:station:WAVCIS:CSI06:1,2015-11-17T00:00:00Z,28.8667,-90.4833,100.0,23.14,11111222 
WAVCIS,ioos:station:WAVCIS:CSI06:1,2015-11-17T01:00:00Z,28.8667,-90.4833,100.0,23.19,11111222 
WAVCIS,ioos:station:WAVCIS:CSI06:1,2015-11-17T02:00:00Z,28.8667,-90.4833,100.0,23.18,11111222 
WAVCIS,ioos:station:WAVCIS:CSI06:1,2015-11-17T03:00:00Z,28.8667,-90.4833,100.0,23.11,11111222 
WAVCIS,ioos:station:WAVCIS:CSI06:1,2015-11-17T04:00:00Z,28.8667,-90.4833,100.0,23.12,11111222 
WAVCIS,ioos:station:WAVCIS:CSI06:1,2015-11-17T05:00:00Z,28.8667,-90.4833,100.0,23.16,11111222 
WAVCIS,ioos:station:WAVCIS:CSI06:1,2015-11-17T06:00:00Z,28.8667,-90.4833,100.0,23.14,11111222 